Hamilton Island, Australia

8:17 PM AEST on May 28, 2017 (GMT +1000)
Hamilton Island

Weather History for YBHM - February, 2013

Change the Weather History Date:

Wednesday, February 27, 2013

  Actual Average Record
Temperature  
Mean Temperature 78 °F -  
Max Temperature 82 °F - - ()
Min Temperature 75 °F - - ()
Cooling Degree Days 14    
Growing Degree Days 28 (Base 50)    
Moisture  
Dew Point 77 °F    
Average Humidity 93    
Maximum Humidity 100    
Minimum Humidity 84    
Precipitation  
Precipitation 0.03 in - - ()
Sea Level Pressure  
Sea Level Pressure 29.66 in    
Wind  
Wind Speed 14 mph ()    
Max Wind Speed 28 mph    
Max Gust Speed 31 mph    
T = Trace of Precipitation, MM = Missing Value Source: Averaged Metar Reports

Daily Weather History Graph

Daily Weather History Graph

Search for Another Location

Airport or City:

Trip Planner

Search our weather history database for the weather conditions in past years. The results will help you decide how hot, cold, wet, or windy it might be!

Date:

Astronomy

Feb. 27, 2013 Rise Set
Actual Time 6:00 AM AEST 6:32 PM AEST
Civil Twilight 5:38 AM AEST 6:55 PM AEST
Nautical Twilight 5:12 AM AEST 7:21 PM AEST
Astronomical Twilight 4:45 AM AEST 7:47 PM AEST
Moon 7:17 PM AEST (2/27) 6:57 AM AEST (2/27)
Length of Visible Light 13h 16m
Length of Day
12h 31m
Full, 98% of the Moon is Illuminated
Feb 27
Full
Mar 5
Last Quarter
Mar 12
New
Mar 20
First Quarter
Mar 27
Full

Hourly Weather History & Observations

Time (AEST) Temp. Heat Index Dew Point Humidity Pressure Visibility Wind Dir Wind Speed Gust Speed Precip Events Conditions
12:00 AM 78 °F - - % 29.62 in - East 16.1 mph - -  
12:00 AM 78.8 °F - 78.8 °F 100% 29.62 in - East 16.1 mph - N/A   Unknown
12:30 AM 78.8 °F - 78.8 °F 100% 29.62 in - East 15.0 mph - N/A   Unknown
1:00 AM 78.8 °F - 78.8 °F 100% 29.62 in - ENE 15.0 mph - N/A   Unknown
1:30 AM 78.8 °F - 77.0 °F 94% 29.62 in - ENE 15.0 mph - N/A   Unknown
2:00 AM 78.8 °F - 77.0 °F 94% 29.62 in - NE 21.9 mph - N/A   Unknown
2:30 AM 77.0 °F - 77.0 °F 100% 29.62 in - NE 16.1 mph - N/A   Unknown
3:00 AM 77 °F - 77 °F 99% 29.61 in - North 11.5 mph - -  
3:00 AM 77.0 °F - 77.0 °F 100% 29.62 in - North 11.5 mph - N/A   Unknown
3:30 AM 77.0 °F - 77.0 °F 100% 29.62 in - NE 10.4 mph - N/A   Unknown
4:00 AM 77.0 °F - 77.0 °F 100% 29.62 in - NNE 13.8 mph - N/A   Unknown
4:30 AM 77.0 °F - 77.0 °F 100% 29.62 in - NE 10.4 mph - N/A   Unknown
5:00 AM 77.0 °F - 77.0 °F 100% 29.62 in - NE 11.5 mph - N/A   Unknown
5:30 AM 77.0 °F - 77.0 °F 100% 29.62 in - ENE 12.7 mph - N/A   Unknown
6:00 AM 77 °F - 77 °F 100% 29.65 in - ENE 12.7 mph - -  
6:00 AM 77.0 °F - 77.0 °F 100% 29.65 in - ENE 12.7 mph - N/A   Unknown
6:30 AM 77.0 °F - 77.0 °F 100% 29.65 in - NE 11.5 mph - N/A   Unknown
7:00 AM 77.0 °F - 77.0 °F 100% 29.65 in - NNE 11.5 mph - N/A   Unknown
7:30 AM 78.8 °F - 75.2 °F 89% 29.65 in - North 10.4 mph - N/A   Unknown
8:00 AM 78.8 °F - 75.2 °F 89% 29.65 in - North 11.5 mph - N/A   Unknown
8:30 AM 78.8 °F - 77.0 °F 94% 29.68 in - East 11.5 mph - N/A   Unknown
9:00 AM 80 °F - 77 °F 86% 29.69 in - East 10.4 mph - -  
9:00 AM 80.6 °F 87.1 °F 77.0 °F 89% 29.68 in - East 10.4 mph - N/A   Unknown
9:30 AM 80.6 °F 87.1 °F 77.0 °F 89% 29.68 in - East 11.5 mph - N/A   Unknown
10:00 AM 80.6 °F 88.1 °F 78.8 °F 94% 29.68 in - NNE 6.9 mph - N/A   Unknown
10:30 AM 78.8 °F - 78.8 °F 100% 29.68 in - ENE 8.1 mph - N/A   Unknown
11:00 AM 82.4 °F 92.4 °F 78.8 °F 89% 29.68 in - ESE 6.9 mph - N/A   Unknown
11:30 AM 82.4 °F 92.4 °F 78.8 °F 89% 29.68 in - East 12.7 mph - N/A   Unknown
12:00 PM 82 °F - 78 °F 86% 29.68 in - East 15.0 mph - -  
12:00 PM 82.4 °F 92.4 °F 78.8 °F 89% 29.68 in - East 15.0 mph - N/A   Unknown
12:30 PM 82.4 °F 92.4 °F 78.8 °F 89% 29.68 in - East 15.0 mph - N/A   Unknown
1:00 PM 82.4 °F 90.9 °F 77.0 °F 84% 29.65 in - East 16.1 mph - N/A   Unknown
1:30 PM 80.6 °F 88.1 °F 78.8 °F 94% 29.65 in - East 18.4 mph - N/A   Unknown
2:00 PM 80.6 °F 87.1 °F 77.0 °F 89% 29.65 in - East 19.6 mph - N/A   Unknown
2:30 PM 80.6 °F 87.1 °F 77.0 °F 89% 29.65 in - East 18.4 mph - N/A   Unknown
3:00 PM 81 °F - 78 °F 87% 29.65 in - East 17.3 mph - -  
3:00 PM 80.6 °F 87.1 °F 77.0 °F 89% 29.65 in - East 17.3 mph - N/A   Unknown
3:30 PM 80.6 °F 87.1 °F 77.0 °F 89% 29.65 in - ESE 18.4 mph - N/A   Unknown
4:00 PM 82.4 °F 90.9 °F 77.0 °F 84% 29.65 in - East 15.0 mph - N/A   Unknown
4:30 PM 82.4 °F 90.9 °F 77.0 °F 84% 29.65 in - East 17.3 mph - N/A   Unknown
5:00 PM 80.6 °F 87.1 °F 77.0 °F 89% 29.65 in - SE 20.7 mph - N/A   Unknown
5:30 PM 78.8 °F - 77.0 °F 94% 29.65 in - ESE 21.9 mph - N/A   Unknown
6:00 PM 79 °F - 77 °F 90% 29.67 in - ESE 25.3 mph - -  
6:00 PM 78.8 °F - 77.0 °F 94% 29.68 in - ESE 25.3 mph - N/A   Unknown
6:30 PM 78.8 °F - 77.0 °F 94% 29.68 in - East 25.3 mph - N/A   Unknown
7:00 PM 78.8 °F - 75.2 °F 89% 29.68 in - East 21.9 mph - N/A   Unknown
7:30 PM 78.8 °F - 75.2 °F 89% 29.68 in - East 15.0 mph - N/A   Unknown
8:00 PM 78.8 °F - 77.0 °F 94% 29.71 in - ESE 18.4 mph - N/A   Unknown
8:30 PM 80.6 °F 88.1 °F 78.8 °F 94% 29.71 in - ESE 17.3 mph - N/A   Unknown
9:00 PM 80 °F - 79 °F 95% 29.72 in - ESE 17.3 mph - -  
9:00 PM 80.6 °F 88.1 °F 78.8 °F 94% 29.71 in - ESE 17.3 mph - N/A   Unknown
9:11 PM 80.6 °F 88.1 °F 78.8 °F 94% 29.71 in - ESE 19.6 mph 31.1 mph N/A   Unknown
9:30 PM 80.6 °F 88.1 °F 78.8 °F 94% 29.71 in - East 27.6 mph - N/A   Unknown
10:00 PM 80.6 °F 87.1 °F 77.0 °F 89% 29.71 in - East 24.2 mph - N/A   Unknown
10:30 PM 80.6 °F 88.1 °F 78.8 °F 94% 29.74 in - East 25.3 mph - N/A   Unknown
11:00 PM 80.6 °F 88.1 °F 78.8 °F 94% 29.74 in - East 24.2 mph - N/A   Unknown
11:30 PM 80.6 °F 88.1 °F 78.8 °F 94% 29.71 in - East 23.0 mph - N/A   Unknown